BKPR

Priština International Airport

Prishtina, Kosovo
Issued Wind Visibility Temperature Dew Point Humidity Barometer
Oct-20
12:00 UTC
290°
6 KTS
10,000+ meters 22° C
72° F
C
39° F
31% 30.09" Hg
1019 hPa
VFR
Oct-20
11:30 UTC
130°
4 KTS
10,000+ meters 23° C
73° F
C
43° F
33% 30.09" Hg
1019 hPa
VFR
Oct-20
11:00 UTC
Varies @1 KTS 10,000+ meters 22° C
72° F
C
45° F
38% 30.12" Hg
1020 hPa
VFR
Oct-20
10:30 UTC
Varies @1 KTS 10,000+ meters 21° C
70° F
C
45° F
40% 30.12" Hg
1020 hPa
VFR
Oct-20
10:00 UTC
Varies @1 KTS 10,000+ meters 19° C
66° F
C
45° F
46% 30.12" Hg
1020 hPa
VFR
Oct-20
09:30 UTC
Varies @1 KTS 10,000+ meters 18° C
64° F
C
46° F
52% 30.15" Hg
1021 hPa
VFR
Oct-20
09:00 UTC
Varies @1 KTS 10,000+ meters 15° C
59° F
C
45° F
59% 30.15" Hg
1021 hPa
VFR
Oct-20
08:30 UTC
10,000+ meters 14° C
57° F
C
45° F
63% 30.15" Hg
1021 hPa
VFR
Oct-20
08:00 UTC
7,001 meters 13° C
55° F
C
43° F
63% 30.15" Hg
1021 hPa
MVFR
Oct-20
07:30 UTC
7,001 meters 11° C
52° F
C
43° F
72% 30.15" Hg
1021 hPa
MVFR
Oct-20
07:00 UTC
Varies @1 KTS 6,003 meters C
48° F
C
41° F
76% 30.15" Hg
1021 hPa
MVFR
Oct-20
06:30 UTC
4,007 meters C
45° F
C
39° F
81% 30.15" Hg
1021 hPa
IFR
Oct-20
06:00 UTC
1,593 meters C
43° F
C
39° F
87% 30.12" Hg
1020 hPa
LIFR
Oct-20
05:30 UTC
1,497 meters C
41° F
C
36° F
81% 30.12" Hg
1020 hPa
LIFR
Oct-20
05:00 UTC
1,996 meters C
41° F
C
36° F
81% 30.12" Hg
1020 hPa
IFR
Oct-20
04:30 UTC
7,998 meters C
39° F
C
36° F
87% 30.12" Hg
1020 hPa
MVFR
Oct-20
04:00 UTC
10,000+ meters C
39° F
C
36° F
87% 30.12" Hg
1020 hPa
VFR
Oct-20
03:30 UTC
Varies @1 KTS 10,000+ meters C
41° F
C
36° F
81% 30.12" Hg
1020 hPa
VFR
Oct-20
03:00 UTC
10,000+ meters C
41° F
C
36° F
81% 30.12" Hg
1020 hPa
VFR
Oct-20
02:30 UTC
10,000+ meters C
43° F
C
37° F
81% 30.12" Hg
1020 hPa
VFR
Oct-20
02:00 UTC
10,000+ meters C
41° F
C
36° F
81% 30.12" Hg
1020 hPa
VFR
Oct-20
01:30 UTC
10,000+ meters C
45° F
C
37° F
76% 30.12" Hg
1020 hPa
VFR
Oct-20
01:00 UTC
10,000+ meters C
45° F
C
39° F
81% 30.12" Hg
1020 hPa
VFR
Oct-20
00:30 UTC
10,000+ meters C
45° F
C
37° F
76% 30.12" Hg
1020 hPa
VFR
Oct-20
00:00 UTC
10,000+ meters C
45° F
C
39° F
81% 30.12" Hg
1020 hPa
VFR
Oct-19
23:30 UTC
Varies @1 KTS 10,000+ meters C
45° F
C
37° F
76% 30.12" Hg
1020 hPa
VFR
Oct-19
23:00 UTC
10,000+ meters C
46° F
C
39° F
76% 30.12" Hg
1020 hPa
VFR
Oct-19
22:30 UTC
Varies @1 KTS 10,000+ meters C
48° F
C
39° F
71% 30.09" Hg
1019 hPa
VFR
Oct-19
22:00 UTC
Varies @1 KTS 10,000+ meters C
48° F
C
39° F
71% 30.09" Hg
1019 hPa
VFR
Oct-19
21:30 UTC
10,000+ meters C
48° F
C
39° F
71% 30.09" Hg
1019 hPa
VFR
Oct-19
21:00 UTC
Varies @1 KTS 10,000+ meters 11° C
52° F
C
41° F
67% 30.09" Hg
1019 hPa
VFR
Oct-19
20:30 UTC
Varies @2 KTS 10,000+ meters 11° C
52° F
C
41° F
67% 30.09" Hg
1019 hPa
VFR
Oct-19
20:00 UTC
10,000+ meters 11° C
52° F
C
41° F
67% 30.09" Hg
1019 hPa
VFR
Oct-19
19:30 UTC
10,000+ meters 11° C
52° F
C
41° F
67% 30.09" Hg
1019 hPa
VFR
Oct-19
19:00 UTC
Varies @1 KTS 10,000+ meters 13° C
55° F
C
41° F
59% 30.09" Hg
1019 hPa
VFR
Oct-19
18:30 UTC
10,000+ meters 12° C
54° F
C
41° F
63% 30.09" Hg
1019 hPa
VFR
Oct-19
18:00 UTC
10,000+ meters 13° C
55° F
C
43° F
63% 30.09" Hg
1019 hPa
VFR
Oct-19
17:30 UTC
Varies @3 KTS 10,000+ meters 13° C
55° F
C
43° F
63% 30.06" Hg
1018 hPa
VFR
Oct-19
17:00 UTC
Varies @3 KTS 10,000+ meters 15° C
59° F
C
43° F
55% 30.06" Hg
1018 hPa
VFR
Oct-19
16:30 UTC
Varies @2 KTS 10,000+ meters 16° C
61° F
C
43° F
52% 30.06" Hg
1018 hPa
VFR
Oct-19
16:00 UTC
260°
5 KTS
10,000+ meters 17° C
63° F
C
43° F
49% 30.06" Hg
1018 hPa
VFR
Oct-19
15:30 UTC
Varies @3 KTS 10,000+ meters 20° C
68° F
C
41° F
38% 30.06" Hg
1018 hPa
VFR
Oct-19
15:00 UTC
Varies @3 KTS 10,000+ meters 23° C
73° F
C
37° F
27% 30.06" Hg
1018 hPa
VFR
Oct-19
14:30 UTC
240°
4 KTS
10,000+ meters 24° C
75° F
C
37° F
25% 30.06" Hg
1018 hPa
VFR
Oct-19
14:00 UTC
Varies @1 KTS 10,000+ meters 24° C
75° F
C
43° F
31% 30.06" Hg
1018 hPa
VFR
Oct-19
13:30 UTC
10,000+ meters 24° C
75° F
C
43° F
31% 30.06" Hg
1018 hPa
VFR
Oct-19
13:00 UTC
Varies @2 KTS 10,000+ meters 24° C
75° F
C
43° F
31% 30.06" Hg
1018 hPa
VFR
Oct-19
12:30 UTC
Varies @2 KTS 10,000+ meters 23° C
73° F
C
45° F
36% 30.06" Hg
1018 hPa
VFR